PU5BHV-12 Weather Reports


time (UTC)temp
C
wind
direction
speed
KPH
gust
KPH
rain 1hr
cm
rain 24hr
cm
rain mn
cm
humidity
%
barometer
mb
20230208173756 33 334 1.6 1.6 0.00 0.00 0.00 54 1010.6
20230208173255 33 83 1.6 3.2 0.00 0.00 0.00 52 1010.7
20230208172754 33 327 3.2 3.2 0.00 0.00 0.00 56 1010.6
20230208172252 33 2 1.6 1.6 0.00 0.00 0.00 53 1010.7
20230208171752 33 335 1.6 1.6 0.00 0.00 0.00 52 1010.9
20230208171252 33 322 1.6 1.6 0.00 0.00 0.00 54 1011.1
20230208170750 33 312 1.6 1.6 0.00 0.00 0.00 54 1011.0
20230208170248 33 328 3.2 3.2 0.00 0.00 0.00 53 1011.3
20230208165748 33 20 3.2 3.2 0.00 0.00 0.00 53 1011.4
20230208165248 32 293 1.6 1.6 0.00 0.00 0.00 60 1011.3
20230208164747 33 149 3.2 3.2 0.00 0.00 0.00 53 1011.2
20230208164246 32 315 0.0 1.6 0.00 0.00 0.00 57 1011.4
20230208163745 31 270 1.6 1.6 0.00 0.00 0.00 57 1011.6
20230208163244 32 291 1.6 3.2 0.00 0.00 0.00 58 1011.9
20230208162743 32 352 3.2 3.2 0.00 0.00 0.00 56 1011.6
20230208162242 32 314 0.0 0.0 0.00 0.00 0.00 53 1011.9
20230208161738 32 301 0.0 0.0 0.00 0.00 0.00 57 1012.2
20230208161239 32 276 1.6 1.6 0.00 0.00 0.00 60 1012.0
20230208160738 31 342 4.8 4.8 0.00 0.00 0.00 58 1012.0
20230208160237 32 322 1.6 3.2 0.00 0.00 0.00 56 1012.3
20230208155736 32 289 0.0 0.0 0.00 0.00 0.00 57 1012.2
20230208155236 33 352 1.6 1.6 0.00 0.00 0.00 51 1012.2
20230208154736 33 252 1.6 1.6 0.00 0.00 0.00 53 1012.3
20230208154235 33 21 1.6 3.2 0.00 0.00 0.00 51 1012.1
20230208153735 33 302 0.0 1.6 0.00 0.00 0.00 53 1012.4
20230208153233 33 319 1.6 1.6 0.00 0.00 0.00 55 1012.5
20230208152732 32 313 3.2 4.8 0.00 0.00 0.00 56 1012.5
20230208152231 32 333 0.0 0.0 0.00 0.00 0.00 56 1012.8
20230208151731 32 308 3.2 4.8 0.00 0.00 0.00 56 1012.8
20230208151229 32 318 0.0 0.0 0.00 0.00 0.00 57 1012.7
20230208150727 31 306 0.0 1.6 0.00 0.00 0.00 57 1012.9
20230208150227 31 330 3.2 3.2 0.00 0.00 0.00 59 1013.0
20230208145726 31 359 0.0 1.6 0.00 0.00 0.00 55 1013.0
20230208145224 31 325 0.0 1.6 0.00 0.00 0.00 59 1013.3
20230208144722 31 308 3.2 3.2 0.00 0.00 0.00 58 1013.2
20230208144222 31 303 1.6 1.6 0.00 0.00 0.00 56 1013.5
20230208143721 31 1 0.0 1.6 0.00 0.00 0.00 58 1013.3
20230208143220 31 316 0.0 1.6 0.00 0.00 0.00 59 1013.6
20230208142718 30 324 0.0 0.0 0.00 0.00 0.00 58 1013.6
20230208142217 31 343 0.0 1.6 0.00 0.00 0.00 60 1013.6
20230208141716 31 97 0.0 1.6 0.00 0.00 0.00 61 1013.9
20230208141216 30 355 0.0 0.0 0.00 0.00 0.00 58 1013.8
20230208140716 31 317 0.0 0.0 0.00 0.00 0.00 57 1013.6
20230208140215 31 182 1.6 1.6 0.00 0.00 0.00 57 1013.8
20230208135713 30 305 1.6 1.6 0.00 0.00 0.00 61 1013.9
20230208135212 30 35 1.6 3.2 0.00 0.00 0.00 58 1014.0
20230208134710 30 307 3.2 3.2 0.00 0.00 0.00 60 1013.7
20230208134209 29 11 0.0 0.0 0.00 0.00 0.00 63 1014.1
20230208133706 30 85 1.6 1.6 0.00 0.00 0.00 65 1014.0
20230208133205 30 164 1.6 3.2 0.00 0.00 0.00 62 1014.1
20230208132704 30 334 1.6 1.6 0.00 0.00 0.00 63 1014.2
20230208132203 30 202 1.6 1.6 0.00 0.00 0.00 64 1014.3
20230208131702 29 55 1.6 3.2 0.00 0.00 0.00 67 1014.2
20230208131202 29 196 3.2 3.2 0.00 0.00 0.00 64 1014.5
20230208130700 28 118 0.0 1.6 0.00 0.00 0.00 67 1014.3
20230208130159 29 340 1.6 3.2 0.00 0.00 0.00 65 1014.6
20230208125659 28 136 3.2 3.2 0.00 0.00 0.00 65 1014.4
20230208125158 28 74 1.6 1.6 0.00 0.00 0.00 66 1014.7
20230208124656 28 139 0.0 1.6 0.00 0.00 0.00 68 1014.6
20230208124155 27 305 0.0 0.0 0.00 0.00 0.00 71 1014.8
20230208123653 27 175 4.8 8.0 0.00 0.00 0.00 69 1015.0
20230208123152 27 335 3.2 4.8 0.00 0.00 0.00 70 1014.7
20230208122652 27 191 3.2 3.2 0.00 0.00 0.00 71 1015.0
20230208122150 27 113 1.6 1.6 0.00 0.00 0.00 72 1015.0
20230208121648 27 164 1.6 1.6 0.00 0.00 0.00 71 1015.1
20230208121148 27 4 0.0 1.6 0.00 0.00 0.00 75 1015.2
20230208120648 26 92 1.6 1.6 0.00 0.00 0.00 75 1015.1
20230208120147 27 110 1.6 1.6 0.00 0.00 0.00 72 1015.1
20230208115647 27 59 1.6 1.6 0.00 0.00 0.00 72 1015.3
20230208115146 27 120 4.8 4.8 0.00 0.00 0.00 71 1015.2
20230208114646 27 146 3.2 3.2 0.00 0.00 0.00 71 1015.0
20230208114144 27 130 1.6 1.6 0.00 0.00 0.00 73 1015.1
20230208113643 26 24 0.0 0.0 0.00 0.00 0.00 74 1015.1
20230208113142 26 120 1.6 1.6 0.00 0.00 0.00 76 1015.1
20230208112640 27 86 1.6 1.6 0.00 0.00 0.00 75 1015.1
20230208112140 26 33 0.0 0.0 0.00 0.00 0.00 77 1015.1
20230208111640 25 291 0.0 0.0 0.00 0.00 0.00 83 1015.0
20230208111138 25 18 0.0 0.0 0.00 0.00 0.00 80 1014.8
20230208110637 25 340 0.0 0.0 0.00 0.00 0.00 83 1014.8
20230208110136 25 83 0.0 0.0 0.00 0.00 0.00 82 1014.8
20230208105634 24 5 0.0 0.0 0.00 0.00 0.00 85 1015.0
20230208105133 23 332 0.0 0.0 0.00 0.00 0.00 91 1015.0
20230208104633 23 322 0.0 1.6 0.00 0.00 0.00 90 1015.0
20230208104132 23 351 0.0 0.0 0.00 0.00 0.00 89 1014.8
20230208103630 23 253 0.0 0.0 0.00 0.00 0.00 89 1015.0
20230208103129 23 254 0.0 0.0 0.00 0.00 0.00 91 1015.1
20230208102628 22 235 0.0 0.0 0.00 0.00 0.00 90 1015.1
20230208102129 22 331 0.0 0.0 0.00 0.00 0.00 91 1014.8
20230208101628 22 329 0.0 0.0 0.00 0.00 0.00 92 1015.0
20230208101128 22 329 0.0 0.0 0.00 0.00 0.00 92 1014.8
20230208100627 22 330 0.0 0.0 0.00 0.00 0.00 92 1014.8
20230208100126 22 330 0.0 0.0 0.00 0.00 0.00 92 1014.8
20230208095625 22 330 0.0 0.0 0.00 0.00 0.00 92 1014.7
20230208095125 22 324 0.0 0.0 0.00 0.00 0.00 95 1015.0
20230208094625 22 324 0.0 0.0 0.00 0.00 0.00 95 1014.7
20230208094124 22 324 0.0 0.0 0.00 0.00 0.00 96 1014.6
20230208093624 22 324 0.0 0.0 0.00 0.00 0.00 96 1014.5
20230208093123 21 324 0.0 0.0 0.00 0.00 0.00 96 1014.8
20230208092622 21 324 0.0 0.0 0.00 0.00 0.00 96 1014.5
20230208092121 21 324 0.0 0.0 0.00 0.00 0.00 96 1014.8
20230208091618 21 324 0.0 0.0 0.00 0.00 0.00 96 1014.5
20230208091115 21 324 0.0 0.0 0.00 0.00 0.00 95 1014.3
20230208090614 21 324 0.0 0.0 0.00 0.00 0.00 95 1014.4
20230208090113 21 324 0.0 0.0 0.00 0.00 0.00 95 1014.4
20230208085611 21 324 0.0 0.0 0.00 0.00 0.00 96 1014.4
20230208085110 21 320 0.0 0.0 0.00 0.00 0.00 97 1014.4
20230208084607 21 320 0.0 0.0 0.00 0.00 0.00 97 1014.3
20230208084106 21 320 0.0 0.0 0.00 0.00 0.00 97 1014.4
20230208083604 21 320 0.0 0.0 0.00 0.00 0.00 97 1014.0
20230208083102 21 320 0.0 0.0 0.00 0.00 0.00 97 1014.1
20230208082602 21 320 0.0 0.0 0.00 0.00 0.00 97 1014.0
20230208082101 21 320 0.0 0.0 0.00 0.00 0.00 97 1014.1
20230208081601 21 320 0.0 0.0 0.00 0.00 0.00 97 1013.9
20230208081100 21 320 0.0 0.0 0.00 0.00 0.00 97 1013.9
20230208080600 21 320 0.0 0.0 0.00 0.00 0.00 97 1013.9
20230208080059 21 320 0.0 0.0 0.00 0.00 0.00 97 1013.9
20230208075557 21 320 0.0 0.0 0.00 0.00 0.00 97 1013.8
20230208075055 21 320 0.0 0.0 0.00 0.00 0.00 97 1014.0
20230208074553 21 320 0.0 0.0 0.00 0.00 0.00 97 1013.8
20230208074051 21 320 0.0 0.0 0.00 0.00 0.00 97 1013.8
20230208073551 21 320 0.0 0.0 0.00 0.00 0.00 97 1014.0
20230208073049 21 320 0.0 0.0 0.00 0.00 0.00 97 1013.7
20230208072547 21 320 0.0 0.0 0.00 0.00 0.00 97 1013.9
20230208072047 21 320 0.0 0.0 0.00 0.00 0.00 97 1013.8
20230208071546 21 320 0.0 0.0 0.00 0.00 0.00 97 1013.9
20230208071044 21 320 0.0 0.0 0.00 0.00 0.00 97 1013.9
20230208070544 21 320 0.0 0.0 0.00 0.00 0.00 97 1014.0
20230208070043 21 320 0.0 0.0 0.00 0.00 0.00 97 1013.9
20230208065542 21 320 0.0 0.0 0.00 0.00 0.00 96 1013.9
20230208065041 21 320 0.0 0.0 0.00 0.00 0.00 96 1013.9
20230208064541 21 321 0.0 0.0 0.00 0.00 0.00 96 1013.9
20230208064040 21 285 0.0 0.0 0.00 0.00 0.00 97 1013.7
20230208063538 21 285 0.0 0.0 0.00 0.00 0.00 96 1013.7
20230208063037 21 285 0.0 0.0 0.00 0.00 0.00 96 1013.9
20230208062536 21 285 0.0 0.0 0.00 0.00 0.00 96 1013.7
20230208062036 21 285 0.0 0.0 0.00 0.00 0.00 96 1013.6
20230208061534 21 285 0.0 0.0 0.00 0.00 0.00 96 1013.6
20230208061032 21 284 0.0 0.0 0.00 0.00 0.00 96 1013.8
20230208060531 21 284 0.0 0.0 0.00 0.00 0.00 96 1013.7
20230208060030 21 284 0.0 0.0 0.00 0.00 0.00 96 1013.8
20230208055529 21 285 0.0 0.0 0.00 0.00 0.00 96 1013.6
20230208055028 21 285 0.0 0.0 0.00 0.00 0.00 96 1013.7
20230208054527 21 285 0.0 0.0 0.00 0.00 0.00 96 1013.8
20230208054025 21 285 0.0 0.0 0.00 0.00 0.00 96 1013.5
20230208053524 21 285 0.0 0.0 0.00 0.00 0.00 96 1014.0
20230208053022 21 285 0.0 0.0 0.00 0.00 0.00 96 1013.7
20230208052522 21 285 0.0 0.0 0.00 0.00 0.00 95 1014.1
20230208052022 21 285 0.0 0.0 0.00 0.00 0.00 95 1013.7
20230208051521 21 285 0.0 0.0 0.00 0.00 0.00 95 1014.0
20230208051021 21 285 0.0 0.0 0.00 0.00 0.00 96 1013.8
20230208050521 21 284 0.0 0.0 0.00 0.00 0.00 95 1014.1
20230208050020 21 284 0.0 0.0 0.00 0.00 0.00 95 1014.2
20230208045519 21 284 0.0 0.0 0.00 0.00 0.00 95 1014.3
20230208045017 22 284 0.0 0.0 0.00 0.00 0.00 94 1014.3
20230208044517 21 284 0.0 0.0 0.00 0.00 0.00 94 1014.3
20230208044016 21 284 0.0 0.0 0.00 0.00 0.00 95 1014.2
20230208043515 21 284 0.0 0.0 0.00 0.00 0.00 95 1014.4
20230208043014 22 284 0.0 0.0 0.00 0.00 0.00 95 1014.3
20230208042513 22 284 0.0 0.0 0.00 0.00 0.00 94 1014.3
20230208042012 22 284 0.0 0.0 0.00 0.00 0.00 94 1014.3
20230208041510 22 284 0.0 0.0 0.00 0.00 0.00 94 1014.5
20230208041009 22 324 0.0 0.0 0.00 0.00 0.00 93 1014.5
20230208040508 22 324 0.0 0.0 0.00 0.00 0.00 93 1014.3
20230208040007 22 324 0.0 0.0 0.00 0.00 0.00 93 1014.5
20230208035506 22 324 0.0 0.0 0.00 0.00 0.00 93 1014.4
20230208035004 22 324 0.0 0.0 0.00 0.00 0.00 93 1014.5
20230208034502 22 324 0.0 0.0 0.00 0.00 0.00 92 1014.4
20230208034001 22 324 0.0 0.0 0.00 0.00 0.00 91 1014.5
20230208033501 22 324 0.0 0.0 0.00 0.00 0.00 92 1014.0
20230208033000 22 318 0.0 0.0 0.00 0.00 0.00 92 1014.7
20230208032458 22 209 0.0 0.0 0.00 0.00 0.00 93 1014.7
20230208031956 22 212 0.0 0.0 0.00 0.00 0.00 93 1014.6
20230208031457 22 190 0.0 0.0 0.00 0.00 0.00 93 1014.7
20230208030955 22 190 0.0 0.0 0.00 0.00 0.00 92 1014.6
20230208030454 22 190 0.0 0.0 0.00 0.00 0.00 92 1014.6
20230208025954 22 190 0.0 0.0 0.00 0.00 0.00 91 1014.8
20230208025453 22 190 0.0 0.0 0.00 0.00 0.00 91 1014.6
20230208024953 22 190 0.0 0.0 0.00 0.00 0.00 91 1014.8
20230208024452 23 190 0.0 0.0 0.00 0.00 0.00 90 1015.0
20230208023952 23 190 0.0 0.0 0.00 0.00 0.00 89 1014.8
20230208023451 23 190 0.0 0.0 0.00 0.00 0.00 88 1014.7
20230208022949 23 190 0.0 0.0 0.00 0.00 0.00 88 1014.8
20230208022448 23 190 0.0 0.0 0.00 0.00 0.00 89 1014.8
20230208021947 23 183 0.0 0.0 0.00 0.00 0.00 88 1014.7
20230208021447 23 344 0.0 0.0 0.00 0.00 0.00 86 1015.0
20230208020946 23 344 0.0 0.0 0.00 0.00 0.00 87 1015.0
20230208020445 23 344 0.0 0.0 0.00 0.00 0.00 86 1015.0
20230208015944 23 344 0.0 0.0 0.00 0.00 0.00 87 1014.8
20230208015442 23 342 0.0 0.0 0.00 0.00 0.00 86 1014.7
20230208014941 23 342 0.0 0.0 0.00 0.00 0.00 86 1014.8
20230208014440 24 342 0.0 0.0 0.00 0.00 0.00 86 1015.0
20230208013939 24 342 0.0 0.0 0.00 0.00 0.00 85 1014.8
20230208013439 24 342 0.0 0.0 0.00 0.00 0.00 85 1014.7
20230208012938 24 342 0.0 0.0 0.00 0.00 0.00 84 1014.7
20230208012438 24 341 0.0 0.0 0.00 0.00 0.00 83 1014.6
20230208011937 25 336 0.0 0.0 0.00 0.00 0.00 83 1014.5
20230208011437 25 321 0.0 0.0 0.00 0.00 0.00 82 1014.4
20230208010936 25 321 0.0 0.0 0.00 0.00 0.00 81 1014.4
20230208010435 25 321 0.0 0.0 0.00 0.00 0.00 80 1014.4
20230208005934 25 292 3.2 4.8 0.00 0.00 0.00 79 1014.1
20230208005433 25 340 0.0 1.6 0.00 0.00 0.00 80 1014.2
20230208004932 25 341 0.0 0.0 0.00 0.00 0.00 80 1014.4
20230208004432 25 333 0.0 0.0 0.00 0.00 0.00 79 1014.7
20230208003931 25 328 0.0 1.6 0.00 0.00 0.00 79 1014.5
20230208003430 25 341 0.0 1.6 0.00 0.00 0.00 78 1014.5
20230208002930 25 330 0.0 1.6 0.00 0.00 0.00 78 1014.6
20230208002429 26 14 0.0 0.0 0.00 0.00 0.00 77 1014.6
20230208001928 26 315 1.6 3.2 0.00 0.00 0.00 77 1014.5
20230208001425 26 351 0.0 0.0 0.00 0.00 0.00 77 1014.4
20230208000925 26 217 0.0 0.0 0.00 0.00 0.00 77 1014.5
20230208000424 26 305 0.0 1.6 0.00 0.00 0.00 77 1014.3
20230207235923 26 349 0.0 0.0 0.00 0.00 0.00 76 1014.4
20230207235422 26 147 3.2 3.2 0.00 0.00 0.00 76 1014.3
20230207234921 26 174 1.6 1.6 0.00 0.00 0.00 76 1014.2
20230207234421 26 272 0.0 0.0 0.00 0.00 0.00 76 1014.1
20230207233920 26 324 0.0 0.0 0.00 0.00 0.00 75 1014.2
20230207233419 26 326 0.0 0.0 0.00 0.00 0.00 75 1014.2
20230207232918 26 98 1.6 3.2 0.00 0.00 0.00 75 1014.1
20230207232417 26 337 0.0 1.6 0.00 0.00 0.00 74 1014.3
20230207231916 26 15 1.6 1.6 0.00 0.00 0.00 74 1014.0
20230207231415 26 287 1.6 1.6 0.00 0.00 0.00 74 1014.0
20230207230914 26 308 3.2 3.2 0.00 0.00 0.00 73 1013.7
20230207230412 26 331 0.0 0.0 0.00 0.00 0.00 72 1013.6
20230207225910 27 327 0.0 1.6 0.00 0.00 0.00 72 1013.5
20230207225409 27 354 4.8 8.0 0.00 0.00 0.00 71 1013.4
20230207224907 27 315 0.0 0.0 0.00 0.00 0.00 70 1013.2
20230207224406 27 121 3.2 3.2 0.00 0.00 0.00 69 1013.0
20230207223906 27 314 1.6 3.2 0.00 0.00 0.00 68 1013.0
20230207223405 27 331 0.0 1.6 0.00 0.00 0.00 67 1012.9
20230207222905 27 281 0.0 0.0 0.00 0.00 0.00 67 1012.6
20230207222403 27 302 0.0 0.0 0.00 0.00 0.00 68 1012.8
20230207221903 27 94 1.6 3.2 0.00 0.00 0.00 67 1012.4
20230207221402 28 16 3.2 3.2 0.00 0.00 0.00 66 1012.3
20230207220901 28 95 0.0 1.6 0.00 0.00 0.00 68 1012.4
20230207220400 28 304 0.0 0.0 0.00 0.00 0.00 67 1011.7
20230207215858 28 13 0.0 0.0 0.00 0.00 0.00 67 1011.7
20230207215356 28 298 3.2 8.0 0.00 0.00 0.00 65 1011.6
20230207214857 29 278 0.0 0.0 0.00 0.00 0.00 65 1011.6
20230207214356 29 270 0.0 1.6 0.00 0.00 0.00 65 1011.5
20230207213855 29 335 3.2 8.0 0.00 0.00 0.00 64 1011.4
20230207213354 29 207 1.6 3.2 0.00 0.00 0.00 65 1011.3
20230207212853 30 272 0.0 1.6 0.00 0.00 0.00 64 1011.1
20230207212353 30 347 4.8 4.8 0.00 0.00 0.00 63 1011.0
20230207211852 30 356 3.2 4.8 0.00 0.00 0.00 63 1010.8
20230207211351 30 149 3.2 3.2 0.00 0.00 0.00 61 1010.9
20230207210850 30 338 4.8 8.0 0.00 0.00 0.00 60 1010.7
20230207210348 31 164 3.2 3.2 0.00 0.00 0.00 59 1010.5
20230207205847 31 7 4.8 4.8 0.00 0.00 0.00 57 1010.5
20230207205346 31 78 1.6 1.6 0.00 0.00 0.00 55 1010.4
20230207204846 31 337 3.2 4.8 0.00 0.00 0.00 54 1010.3
20230207204344 31 335 0.0 0.0 0.00 0.00 0.00 52 1010.2
20230207203842 31 310 1.6 3.2 0.00 0.00 0.00 52 1010.4
20230207203340 32 153 3.2 3.2 0.00 0.00 0.00 50 1010.2
20230207202839 32 268 1.6 1.6 0.00 0.00 0.00 49 1010.0
20230207202337 32 328 1.6 3.2 0.00 0.00 0.00 47 1010.1
20230207201837 32 32 0.0 1.6 0.00 0.00 0.00 46 1010.1
20230207201335 32 327 4.8 4.8 0.00 0.00 0.00 46 1010.1
20230207200834 32 318 3.2 3.2 0.00 0.00 0.00 46 1010.1
20230207200334 32 332 0.0 1.6 0.00 0.00 0.00 47 1010.1
20230207195834 32 317 4.8 4.8 0.00 0.00 0.00 46 1009.9
20230207195333 32 279 0.0 0.0 0.00 0.00 0.00 46 1010.2
20230207194832 32 350 4.8 8.0 0.00 0.00 0.00 45 1010.1
20230207194330 32 321 3.2 3.2 0.00 0.00 0.00 46 1010.4
20230207193829 32 349 1.6 3.2 0.00 0.00 0.00 45 1010.5
20230207193327 32 301 3.2 3.2 0.00 0.00 0.00 45 1010.4
20230207192828 32 53 1.6 3.2 0.00 0.00 0.00 44 1010.4
20230207192327 32 331 4.8 4.8 0.00 0.00 0.00 44 1010.5
20230207191826 33 352 3.2 4.8 0.00 0.00 0.00 44 1010.5
20230207191326 32 337 4.8 4.8 0.00 0.00 0.00 46 1010.8
20230207190824 32 292 4.8 4.8 0.00 0.00 0.00 44 1010.5
20230207190323 32 295 3.2 3.2 0.00 0.00 0.00 45 1010.5
20230207185819 33 342 4.8 8.0 0.00 0.00 0.00 44 1010.8
20230207185315 33 307 4.8 4.8 0.00 0.00 0.00 44 1011.0
20230207184814 33 285 4.8 4.8 0.00 0.00 0.00 44 1010.7
20230207184312 33 318 0.0 1.6 0.00 0.00 0.00 43 1010.8
20230207183811 33 325 1.6 1.6 0.00 0.00 0.00 43 1010.9
20230207183310 32 333 1.6 1.6 0.00 0.00 0.00 41 1010.9
20230207182809 33 302 3.2 3.2 0.00 0.00 0.00 41 1010.9
20230207182308 33 317 0.0 0.0 0.00 0.00 0.00 44 1010.8
20230207181807 32 40 1.6 3.2 0.00 0.00 0.00 42 1011.0
20230207181307 32 347 4.8 4.8 0.00 0.00 0.00 43 1011.3
20230207180802 32 339 1.6 1.6 0.00 0.00 0.00 43 1011.4
20230207180300 33 13 1.6 3.2 0.00 0.00 0.00 41 1011.6
20230207175800 32 312 1.6 3.2 0.00 0.00 0.00 43 1011.7
20230207175259 33 308 4.8 4.8 0.00 0.00 0.00 45 1011.7
20230207174758 33 330 0.0 0.0 0.00 0.00 0.00 43 1011.6
20230207174258 33 325 0.0 0.0 0.00 0.00 0.00 45 1011.6